Total_Precipitation_Accumulation
0.00 0.00 0.00 0.00 0.00 0.00 0.00 0.00 0.00 0.00 0.00 0.00 0.00 0.00 0.00 0.00 0.00 0.00 0.00 0.00 0.00 0.00 0.00 0.00 0.00 0.00 0.00 0.00 0.00 0.00 0.00 0.00 0.01 0.00 0.00 0.00 0.00 0.00 0.00 0.00 0.00 0.00 0.00
0.00 0.00 0.00 0.00 0.00 0.00 0.00 0.00 0.00 0.00 0.00 0.00 0.00 0.00 0.00 0.00 0.00 0.00 0.00 0.00 0.00 0.00 0.00 0.00 0.00 0.00 0.00 0.00 0.00 0.00 0.00 0.00 0.02 0.04 0.01 0.00 0.00 0.00 0.00 0.00 0.00 0.01 0.02
0.00 0.00 0.00 0.00 0.00 0.00 0.00 0.00 0.00 0.00 0.00 0.00 0.00 0.00 0.00 0.00 0.00 0.00 0.00 0.00 0.00 0.00 0.00 0.00 0.00 0.00 0.00 0.00 0.00 0.00 0.00 0.02 0.04 0.07 0.02 0.00 0.01 0.00 0.01 0.01 0.01 0.00 0.00
0.00 0.00 0.00 0.00 0.00 0.00 0.00 0.00 0.00 0.00 0.00 0.00 0.00 0.00 0.00 0.00 0.00 0.00 0.00 0.00 0.00 0.00 0.00 0.00 0.00 0.00 0.00 0.00 0.00 0.01 0.02 0.03 0.03 0.04 0.09 0.09 0.05 0.05 0.07 0.03 0.00 0.00 0.00
0.00 0.00 0.00 0.00 0.00 0.00 0.00 0.00 0.00 0.00 0.00 0.00 0.00 0.00 0.00 0.00 0.00 0.00 0.00 0.00 0.00 0.00 0.00 0.00 0.00 0.00 0.00 0.00 0.02 0.03 0.04 0.06 0.15 0.24 0.20 0.21 0.17 0.06 0.01 0.01 0.02 0.01 0.02
0.00 0.00 0.00 0.00 0.00 0.00 0.00 0.00 0.00 0.00 0.00 0.00 0.00 0.00 0.00 0.00 0.00 0.00 0.00 0.00 0.00 0.00 0.00 0.00 0.00 0.00 0.00 0.01 0.02 0.03 0.06 0.16 0.25 0.37 0.38 0.19 0.04 0.02 0.01 0.04 0.13 0.17 0.15
0.00 0.00 0.00 0.00 0.00 0.00 0.00 0.00 0.00 0.00 0.00 0.00 0.00 0.00 0.00 0.00 0.00 0.00 0.00 0.00 0.00 0.00 0.00 0.00 0.00 0.00 0.01 0.01 0.01 0.05 0.13 0.27 0.28 0.15 0.07 0.04 0.05 0.05 0.22 0.34 0.27 0.21 0.12
0.00 0.00 0.00 0.00 0.00 0.00 0.00 0.00 0.00 0.00 0.00 0.00 0.00 0.00 0.00 0.00 0.00 0.00 0.00 0.00 0.00 0.00 0.00 0.00 0.00 0.01 0.02 0.03 0.06 0.22 0.21 0.11 0.02 0.01 0.03 0.05 0.11 0.18 0.21 0.18 0.12 0.10 0.05
0.00 0.00 0.00 0.00 0.00 0.00 0.00 0.00 0.00 0.00 0.00 0.00 0.00 0.00 0.00 0.00 0.00 0.00 0.00 0.00 0.00 0.00 0.00 0.00 0.03 0.02 0.02 0.09 0.21 0.26 0.05 0.00 0.00 0.01 0.06 0.06 0.02 0.01 0.02 0.18 0.26 0.22 0.15
0.00 0.00 0.00 0.00 0.00 0.00 0.00 0.00 0.00 0.00 0.00 0.00 0.00 0.00 0.00 0.00 0.00 0.00 0.00 0.00 0.00 0.00 0.01 0.01 0.02 0.02 0.06 0.28 0.14 0.03 0.02 0.01 0.09 0.06 0.01 0.00 0.00 0.00 0.01 0.07 0.29 0.63 0.31
0.00 0.00 0.00 0.00 0.00 0.00 0.00 0.00 0.00 0.00 0.00 0.00 0.00 0.00 0.00 0.00 0.00 0.00 0.00 0.01 0.01 0.05 0.05 0.01 0.00 0.06 0.24 0.12 0.02 0.01 0.02 0.04 0.04 0.01 0.00 0.00 0.00 0.01 0.02 0.04 0.15 0.62 0.73
0.00 0.00 0.00 0.00 0.00 0.00 0.00 0.00 0.00 0.00 0.00 0.00 0.00 0.00 0.00 0.00 0.00 0.00 0.00 0.01 0.04 0.05 0.03 0.02 0.06 0.19 0.05 0.00 0.00 0.02 0.03 0.02 0.00 0.01 0.02 0.02 0.02 0.02 0.02 0.03 0.07 0.14 0.27
0.00 0.00 0.00 0.00 0.00 0.00 0.00 0.00 0.00 0.00 0.00 0.00 0.00 0.00 0.00 0.00 0.00 0.00 0.00 0.04 0.06 0.05 0.03 0.11 0.13 0.02 0.00 0.00 0.00 0.01 0.01 0.00 0.03 0.10 0.07 0.04 0.03 0.03 0.04 0.04 0.03 0.02 0.05
0.00 0.00 0.00 0.00 0.00 0.00 0.00 0.00 0.00 0.00 0.00 0.00 0.00 0.00 0.00 0.00 0.00 0.00 0.02 0.03 0.03 0.06 0.12 0.13 0.01 0.00 0.00 0.00 0.00 0.00 0.00 0.01 0.08 0.16 0.14 0.06 0.03 0.04 0.06 0.08 0.18 0.08 0.17
0.00 0.00 0.00 0.00 0.00 0.00 0.00 0.00 0.00 0.00 0.00 0.00 0.00 0.00 0.01 0.01 0.00 0.02 0.03 0.03 0.05 0.10 0.05 0.00 0.00 0.00 0.00 0.00 0.00 0.00 0.00 0.01 0.08 0.09 0.13 0.12 0.07 0.06 0.06 0.07 0.21 0.26 0.30
0.00 0.00 0.00 0.00 0.00 0.00 0.00 0.00 0.00 0.00 0.00 0.00 0.00 0.00 0.00 0.01 0.02 0.02 0.02 0.06 0.09 0.04 0.00 0.00 0.01 0.01 0.01 0.01 0.01 0.02 0.01 0.03 0.08 0.13 0.13 0.13 0.18 0.18 0.17 0.13 0.23 0.31 0.35
0.00 0.00 0.00 0.00 0.00 0.00 0.00 0.00 0.00 0.00 0.00 0.00 0.00 0.00 0.00 0.01 0.01 0.01 0.05 0.08 0.02 0.00 0.00 0.01 0.03 0.02 0.02 0.02 0.03 0.06 0.08 0.06 0.13 0.18 0.21 0.24 0.24 0.18 0.20 0.23 0.23 0.25 0.21
0.00 0.00 0.00 0.00 0.00 0.00 0.00 0.00 0.00 0.00 0.00 0.00 0.00 0.00 0.00 0.00 0.00 0.02 0.04 0.02 0.00 0.00 0.02 0.03 0.03 0.02 0.02 0.04 0.07 0.12 0.14 0.09 0.12 0.17 0.23 0.20 0.23 0.29 0.25 0.24 0.24 0.26 0.25
0.00 0.00 0.00 0.00 0.00 0.00 0.00 0.00 0.00 0.00 0.00 0.00 0.00 0.00 0.00 0.00 0.02 0.02 0.01 0.00 0.02 0.02 0.03 0.02 0.02 0.03 0.05 0.07 0.10 0.13 0.15 0.20 0.27 0.28 0.20 0.21 0.22 0.28 0.20 0.17 0.16 0.14 0.14
0.00 0.00 0.00 0.00 0.00 0.00 0.00 0.00 0.00 0.00 0.00 0.00 0.00 0.00 0.00 0.02 0.04 0.00 0.00 0.01 0.02 0.02 0.02 0.03 0.02 0.03 0.06 0.11 0.14 0.15 0.17 0.13 0.16 0.17 0.16 0.17 0.17 0.19 0.18 0.12 0.11 0.13 0.11
0.00 0.00 0.00 0.00 0.00 0.00 0.00 0.00 0.00 0.00 0.00 0.00 0.00 0.00 0.01 0.02 0.01 0.00 0.01 0.01 0.02 0.02 0.03 0.04 0.03 0.05 0.09 0.11 0.13 0.15 0.16 0.14 0.16 0.21 0.14 0.14 0.14 0.13 0.08 0.09 0.09 0.13 0.14
0.00 0.00 0.00 0.00 0.00 0.00 0.00 0.00 0.00 0.00 0.00 0.00 0.00 0.00 0.00 0.00 0.00 0.01 0.01 0.01 0.01 0.02 0.02 0.04 0.05 0.07 0.17 0.29 0.31 0.25 0.14 0.12 0.14 0.14 0.10 0.09 0.10 0.09 0.08 0.08 0.07 0.09 0.10
0.00 0.00 0.00 0.00 0.00 0.00 0.00 0.00 0.00 0.00 0.00 0.00 0.00 0.00 0.00 0.00 0.00 0.01 0.01 0.01 0.02 0.01 0.01 0.02 0.08 0.10 0.08 0.19 0.28 0.38 0.38 0.26 0.21 0.20 0.18 0.13 0.13 0.14 0.14 0.13 0.08 0.08 0.06
0.00 0.00 0.00 0.00 0.00 0.00 0.00 0.00 0.00 0.00 0.00 0.00 0.00 0.00 0.01 0.01 0.01 0.01 0.01 0.02 0.01 0.01 0.00 0.02 0.08 0.14 0.17 0.19 0.22 0.27 0.36 0.36 0.37 0.38 0.38 0.35 0.17 0.11 0.10 0.09 0.07 0.08 0.06
0.00 0.00 0.00 0.00 0.00 0.00 0.00 0.00 0.00 0.00 0.00 0.01 0.01 0.01 0.01 0.01 0.01 0.01 0.01 0.01 0.02 0.01 0.00 0.01 0.08 0.19 0.23 0.23 0.23 0.22 0.22 0.24 0.33 0.24 0.15 0.13 0.10 0.09 0.09 0.09 0.05 0.04 0.04
0.00 0.00 0.00 0.00 0.00 0.00 0.00 0.00 0.00 0.01 0.02 0.02 0.02 0.02 0.01 0.02 0.02 0.02 0.02 0.01 0.01 0.01 0.01 0.02 0.07 0.16 0.16 0.15 0.17 0.19 0.19 0.25 0.21 0.09 0.07 0.06 0.05 0.05 0.05 0.06 0.05 0.03 0.03